Weather History for Grosse Ile, MI

Change the Weather History Date:

Thursday, May 23, 2013

  Actual Average (KDTW) Record (KDTW)
Temperature  
Mean Temperature 56 °F 62 °F  
Max Temperature 69 °F 72 °F 89 °F (1964)
Min Temperature 44 °F 52 °F 34 °F (1935)
Degree Days  
Heating Degree Days 8 5  
Month to date heating degree days 176  
Since 1 July heating degree days 6070  
Cooling Degree Days 0 2  
Month to date cooling degree days 22  
Year to date cooling degree days 28  
Growing Degree Days 6 (Base 50)    
Moisture  
Dew Point 52 °F    
Average Humidity 83    
Maximum Humidity 93    
Minimum Humidity 68    
Precipitation  
Precipitation 0.24 in 0.12 in 1.69 in (2004)
Month to date precipitation 2.46  
Year to date precipitation 11.62  
Snow  
Snow 0.00 in 0.00 in T in (1917)
Month to date snowfall 0.0  
Since 1 July snowfall 42.5  
Snow Depth -    
Sea Level Pressure  
Sea Level Pressure 29.85 in    
Wind  
Wind Speed 9 mph (WNW)    
Max Wind Speed 20 mph    
Max Gust Speed 26 mph    
Visibility 9 miles    
Events Rain    
T = Trace of Precipitation, MM = Missing Value Source: NWS Daily Summary

Daily Weather History Graph

Daily Weather History Graph

Search for Another Location

Airport:

Trip Planner

Search our weather history database for the weather conditions in past years. The results will help you decide how hot, cold, wet, or windy it might be!

Date:

Astronomy

May. 23, 2013 Rise Set
Actual Time 6:04 AM EDT 8:54 PM EDT
Civil Twilight 5:31 AM EDT 9:27 PM EDT
Nautical Twilight 4:50 AM EDT 10:09 PM EDT
Astronomical Twilight 4:02 AM EDT 10:57 PM EDT
Moon 7:24 PM EDT 4:50 AM EDT
Length of Visible Light 15h 55m
Length of Day
14h 50m
Waxing Gibbous, 97% of the Moon is Illuminated
May 23
Waxing Gibbous
May 25
Full
May 31
Last Quarter
Jun 8
New
Jun 16
First Quarter

Hourly Weather History & Observations

Time (EDT) Temp. Windchill Dew Point Humidity Pressure Visibility Wind Dir Wind Speed Gust Speed Precip Events Conditions
12:14 AM 64.4 °F - 60.8 °F 88% 29.70 in 10.0 mi West 8.1 mph - N/A   Overcast
12:34 AM 64.4 °F - 60.8 °F 88% 29.71 in 10.0 mi West 6.9 mph - N/A   Scattered Clouds
12:54 AM 64.4 °F - 60.8 °F 88% 29.71 in 10.0 mi WSW 8.1 mph - N/A   Clear
1:15 AM 64.4 °F - 60.8 °F 88% 29.71 in 10.0 mi WSW 8.1 mph - N/A   Clear
1:34 AM 64.4 °F - 60.8 °F 88% 29.71 in 10.0 mi WSW 4.6 mph - N/A   Clear
1:54 AM 64.4 °F - 60.8 °F 88% 29.71 in 10.0 mi WSW 4.6 mph - N/A   Clear
2:14 AM 64.4 °F - 60.8 °F 88% 29.71 in 7.0 mi WSW 5.8 mph - N/A   Clear
2:34 AM 64.4 °F - 60.8 °F 88% 29.71 in 7.0 mi SW 5.8 mph - N/A   Scattered Clouds
2:54 AM 64.4 °F - 60.8 °F 88% 29.71 in 7.0 mi SW 5.8 mph - N/A   Scattered Clouds
3:14 AM 64.4 °F - 60.8 °F 88% 29.71 in 7.0 mi SW 4.6 mph - N/A   Clear
3:34 AM 64.4 °F - 60.8 °F 88% 29.70 in 7.0 mi SW 3.5 mph - N/A   Scattered Clouds
3:54 AM 64.4 °F - 60.8 °F 88% 29.71 in 5.0 mi SW 4.6 mph - N/A   Clear
4:14 AM 64.4 °F - 60.8 °F 88% 29.71 in 5.0 mi SW 5.8 mph - N/A   Clear
4:34 AM 64.4 °F - 60.8 °F 88% 29.71 in 7.0 mi WSW 6.9 mph - N/A   Mostly Cloudy
4:54 AM 64.4 °F - 59.0 °F 83% 29.71 in 10.0 mi WSW 6.9 mph - N/A   Mostly Cloudy
5:14 AM 64.4 °F - 59.0 °F 83% 29.72 in 10.0 mi SW 6.9 mph - N/A   Overcast
5:34 AM 64.4 °F - 59.0 °F 83% 29.72 in 10.0 mi WSW 6.9 mph - N/A   Overcast
5:54 AM 64.4 °F - 59.0 °F 83% 29.72 in 10.0 mi WSW 6.9 mph - N/A   Overcast
6:14 AM 64.4 °F - 59.0 °F 83% 29.73 in 10.0 mi WSW 5.8 mph - N/A   Overcast
6:34 AM 62.6 °F - 59.0 °F 88% 29.73 in 10.0 mi WSW 8.1 mph - N/A   Overcast
6:54 AM 64.4 °F - 59.0 °F 83% 29.74 in 10.0 mi WSW 5.8 mph - N/A   Overcast
7:14 AM 64.4 °F - 59.0 °F 83% 29.74 in 10.0 mi WSW 5.8 mph - N/A Rain Light Rain
7:34 AM 64.4 °F - 59.0 °F 83% 29.75 in 10.0 mi WSW 6.9 mph - N/A   Overcast
7:54 AM 62.6 °F - 59.0 °F 88% 29.75 in 7.0 mi WSW 5.8 mph - N/A Rain Light Rain
8:14 AM 62.6 °F - 59.0 °F 88% 29.75 in 5.0 mi WSW 3.5 mph - N/A Rain Rain
8:34 AM 64.4 °F - 59.0 °F 83% 29.76 in 10.0 mi WSW 5.8 mph - N/A   Overcast
8:54 AM 64.4 °F - 59.0 °F 83% 29.76 in 10.0 mi WSW 5.8 mph - N/A   Overcast
9:14 AM 64.4 °F - 59.0 °F 83% 29.77 in 10.0 mi WSW 8.1 mph - N/A   Overcast
9:34 AM 64.4 °F - 59.0 °F 83% 29.77 in 10.0 mi WSW 4.6 mph - N/A   Overcast
9:54 AM 64.4 °F - 59.0 °F 83% 29.77 in 10.0 mi SW 3.5 mph - N/A   Overcast
10:15 AM 66.2 °F - 60.8 °F 83% 29.78 in 10.0 mi WSW 5.8 mph - N/A   Mostly Cloudy
10:34 AM 68.0 °F - 59.0 °F 73% 29.78 in 10.0 mi WSW 6.9 mph - N/A   Mostly Cloudy
10:54 AM 69.8 °F - 59.0 °F 68% 29.77 in 10.0 mi WSW 8.1 mph - N/A   Scattered Clouds
11:14 AM 68.0 °F - 57.2 °F 68% 29.77 in 10.0 mi WSW 9.2 mph - N/A   Mostly Cloudy
11:34 AM 68.0 °F - 57.2 °F 68% 29.78 in 10.0 mi West 4.6 mph - N/A   Mostly Cloudy
11:54 AM 66.2 °F - 57.2 °F 73% 29.78 in 10.0 mi West 13.8 mph 19.6 mph N/A   Mostly Cloudy
12:14 PM 64.4 °F - 59.0 °F 83% 29.79 in 7.0 mi NW 8.1 mph - 0.01 in Rain Light Rain
12:34 PM 64.4 °F - 60.8 °F 88% 29.79 in 10.0 mi NNW 8.1 mph - 0.01 in   Overcast
12:54 PM 64.4 °F - 57.2 °F 77% 29.79 in 7.0 mi NE 18.4 mph 26.5 mph 0.01 in   Overcast
1:14 PM 57.2 °F - 53.6 °F 88% 29.80 in 5.0 mi NE 15.0 mph - 0.02 in Rain Rain
1:34 PM 55.4 °F - 51.8 °F 88% 29.83 in 10.0 mi North 17.3 mph 24.2 mph 0.06 in Rain Light Rain
1:54 PM 53.6 °F - 48.2 °F 82% 29.83 in 4.0 mi North 15.0 mph 23.0 mph 0.06 in Rain Light Rain
2:14 PM 51.8 °F - 48.2 °F 88% 29.84 in 10.0 mi North 13.8 mph 19.6 mph 0.01 in   Light Drizzle
2:34 PM 51.8 °F - 46.4 °F 82% 29.85 in 7.0 mi North 11.5 mph 17.3 mph 0.01 in Rain Light Rain
2:54 PM 50.0 °F - 46.4 °F 87% 29.86 in 5.0 mi North 16.1 mph 20.7 mph 0.08 in Rain Heavy Rain
3:14 PM 48.2 °F - 46.4 °F 93% 29.87 in 10.0 mi North 16.1 mph 19.6 mph 0.03 in Rain Light Rain
3:34 PM 48.2 °F - 44.6 °F 87% 29.88 in 10.0 mi North 19.6 mph 25.3 mph 0.04 in Rain Light Rain
3:54 PM 48.2 °F - 44.6 °F 87% 29.89 in 10.0 mi North 16.1 mph 26.5 mph 0.04 in Rain Light Rain
4:14 PM 48.2 °F - 44.6 °F 87% 29.90 in 10.0 mi North 16.1 mph 24.2 mph N/A Rain Light Rain
4:34 PM 48.2 °F - 44.6 °F 87% 29.91 in 10.0 mi North 10.4 mph 18.4 mph N/A Rain Rain
4:54 PM 48.2 °F - 44.6 °F 87% 29.92 in 10.0 mi North 11.5 mph 20.7 mph 0.02 in Rain Light Rain
5:14 PM 46.4 °F 39.5 °F 42.8 °F 87% 29.93 in 10.0 mi North 17.3 mph 20.7 mph N/A Rain Light Rain
5:34 PM 46.4 °F 39.2 °F 42.8 °F 87% 29.94 in 10.0 mi North 18.4 mph 25.3 mph N/A   Light Drizzle
5:54 PM 46.4 °F 39.5 °F 42.8 °F 87% 29.95 in 10.0 mi North 17.3 mph 23.0 mph N/A   Overcast
6:14 PM 46.4 °F 40.7 °F 42.8 °F 87% 29.96 in 10.0 mi North 12.7 mph 19.6 mph N/A Rain Light Rain
6:34 PM 46.4 °F 39.8 °F 42.8 °F 87% 29.97 in 10.0 mi North 16.1 mph 24.2 mph 0.01 in Rain Rain
6:54 PM 46.4 °F 40.4 °F 42.8 °F 87% 29.99 in 10.0 mi NNW 13.8 mph 23.0 mph 0.02 in Rain Light Rain
7:14 PM 46.4 °F 39.8 °F 42.8 °F 87% 30.00 in 10.0 mi North 16.1 mph 19.6 mph N/A Rain Light Rain
7:34 PM 46.4 °F 41.1 °F 42.8 °F 87% 30.01 in 10.0 mi NNW 11.5 mph 17.3 mph N/A Rain Light Rain
7:54 PM 44.6 °F 36.9 °F 41.0 °F 87% 30.03 in 10.0 mi North 18.4 mph 23.0 mph N/A   Light Drizzle
8:14 PM 44.6 °F 36.9 °F 39.2 °F 81% 30.04 in 10.0 mi North 18.4 mph 24.2 mph 0.01 in   Overcast
8:34 PM 44.6 °F 37.4 °F 39.2 °F 81% 30.06 in 10.0 mi North 16.1 mph 24.2 mph 0.01 in Rain Light Rain
8:54 PM 44.6 °F 38.4 °F 39.2 °F 81% 30.06 in 10.0 mi North 12.7 mph 24.2 mph 0.01 in Rain Light Rain
9:14 PM 44.6 °F 37.8 °F 39.2 °F 81% 30.07 in 10.0 mi North 15.0 mph 21.9 mph N/A Rain Light Rain
9:34 PM 44.6 °F 37.8 °F 37.4 °F 76% 30.08 in 10.0 mi North 15.0 mph - N/A   Overcast
9:54 PM 44.6 °F 38.8 °F 37.4 °F 76% 30.09 in 10.0 mi North 11.5 mph 18.4 mph N/A   Overcast
10:15 PM 44.6 °F 39.2 °F 37.4 °F 76% 30.10 in 10.0 mi North 10.4 mph 16.1 mph N/A   Overcast
10:34 PM 44.6 °F 38.1 °F 37.4 °F 76% 30.11 in 10.0 mi NNW 13.8 mph 17.3 mph N/A   Overcast
10:54 PM 44.6 °F 38.8 °F 37.4 °F 76% 30.11 in 10.0 mi North 11.5 mph 19.6 mph N/A   Overcast
11:14 PM 44.6 °F 38.8 °F 37.4 °F 76% 30.12 in 10.0 mi North 11.5 mph - N/A   Overcast
11:34 PM 46.4 °F 41.1 °F 37.4 °F 71% 30.12 in 10.0 mi North 11.5 mph - N/A   Mostly Cloudy
11:54 PM 44.6 °F 39.7 °F 35.6 °F 71% 30.13 in 10.0 mi NNW 9.2 mph - N/A   Scattered Clouds